STARLINK-5217 (54098 NORAD) Tracking and Keplerian Element Data

This shows tracking and keplerian element data for the satellite.

Feedback or suggestion? Click here.




ElementValue
Catalog54098
NameSTARLINK-5217
Epoch Orbit549
Epoch Day325.33334491
Epoch Year2022
RAAN350.8806
Inclination53.2151
Eccentricity0.0003393
Argument of Perigee9.3554
Mean Anonmoly344.468
Mean Motion15.73179175
Decay Rate0.00028391
L11 54098U 22136AZ 22325.33334491 .00028391 00000+0 20617-3 0 9995
L22 54098 53.2151 350.8806 0003393 9.3554 344.4680 15.73179175 5492



Live tracking and technical data element details for STARLINK-5217 (NORAD 54098). STARLINK-5217 can be tracked NOW for your location showing map with azimuth and elevation plus other details from your city location.







IsCatalogInMostPopularTable: catalog: 54098, numindb: 2
Update: records affected: 1



GetName: 54098 STARLINK-5217

Hit Count: updated at: Fri, 09 Dec 2022 19:03:49 GMT